Regional Weather Roundup
Issued by NWS Newport/Morehead, NC

Current Version | Previous Version | Graphics & Text | Print | Product List | Glossary Off
Versions: 1 2 3 4 5 6 7 8 9 10 11 12 13 14 15 16 17 18 19 20 21 22 23 24 25 26 27 28 29 30 31 32 33 34 35 36 37 38 39 40 41 42 43 44 45 46 47 48 49 50

000
ASUS42 KMHX 282325
RWRMHX
WEATHER ROUNDUP FOR EASTERN NORTH CAROLINA
NATIONAL WEATHER SERVICE NEWPORT/MOREHEAD CITY NC
700 PM EDT THU MAY 28 2015

NOTE: "FAIR" INDICATES FEW OR NO CLOUDS BELOW 12,000 FEET
WITH NO SIGNIFICANT WEATHER AND/OR OBSTRUCTIONS TO VISIBILITY

NCZ015>017-031-032-045>047-102-103-290000-
NORTH COAST

CITY           SKY/WX    TMP DP  RH WIND       PRES   REMARKS
EDENTON          N/A     80  66  62 S10       30.19R
ELIZABETH CITY MOSUNNY   80  64  58 SE8       30.19R
KITTY HAWK     PTCLDY    77  63  61 S8        30.19S
MANTEO         MOSUNNY   75  63  66 S10       30.21R

$$

NCZ045>047-081-094-103-104-290000-
CENTRAL COAST

CITY           SKY/WX    TMP DP  RH WIND       PRES   REMARKS
FRISCO         SUNNY     77  59  53 SE7       30.21F
SWANQUARTER      N/A     77 N/A N/A S7G14     30.18R

$$

NCZ095-097-098-100-101-290000-
SOUTHERN COAST

CITY           SKY/WX    TMP DP  RH WIND       PRES   REMARKS
BEAUFORT       SUNNY     75  63  66 S6        30.20S
CEDAR ISLAND     N/A     77 N/A N/A SE10      30.24S
JACKSONVILLE   MOSUNNY   77  62  59 S10       30.18S
PINEY ISLAND   CLEAR    N/A N/A N/A S6        30.19F
WILMINGTON     SUNNY     78  61  55 SE9       30.18S


$$

NCZ011>013-027>030-043-044-078>080-089-090>093-098-290000-
COASTAL PLAIN

CITY           SKY/WX    TMP DP  RH WIND       PRES   REMARKS
AHOSKIE        MOSUNNY   79  70  73 S3        30.16F
CLINTON        MOSUNNY   82  68  63 CALM      30.16S
ELIZABETHTOWN  SUNNY     82  64  53 SE8       30.17R
GOLDSBORO      MOSUNNY   83  67  58 S5        30.14R
GREENVILLE     MOSUNNY   81  68  65 SE7       30.18R
HAVELOCK       SUNNY     77  61  57 S8        30.20S
KENANSVILLE    SUNNY     80  63  55 SE7       30.18R
KINSTON        MOSUNNY   82  64  54 S9        30.17S
NEW BERN       SUNNY     81  63  54 S10       30.19S
RICHLANDS      MOSUNNY   79  61  53 SE6       30.19R
ROCKY MOUNT    SUNNY     84  68  58 SE3       30.15F
WASHINGTON     SUNNY     80  65  61 SE7       30.18S
WHITEVILLE     SUNNY     80  63  55 SE8       30.17R

$$

AMZ130-135-150-152-154-156-158-170-250-252-270-ANZ085-086-088-633-658-670-290000-
MARINE OBSERVATIONS

STATION/POSITION TIME  TEMP    WIND        PRES    WAVE   SWELL
                       AIR SEA DIR/SP/G            HT/PER HT/PER
                 (UTC) (F)     (DEG/KT/KT) (MB)    (FT/S) (FT/S)
CHESAPEAKE LIGHT 2300   69     170/ 21/ 21 1022.5
64 E VA BEACH    2250   69 66  160/  6/  8 1022.5    3/ 8   3/ 8
DUCK             2300   66 57  140/ 11/ 12 1021.3
2 E DUCK         2211      63                N/A     2/ 8
OREGON INLET     2300   75 79  120/  8/ 11 1022.8
13E OREGON INLT  2300      73                N/A     3/ 8
HATTERAS CG      2300   76 77  140/  5/  8 1022.6
DIAMOND BUOY     2250   76 78  130/  8/ 10 1023.0    4/ 8   3/ 8
CAPE LOOKOUT     2300   75     140/  7/  9 1022.3
BEAUFORT LAB     2300   76 76  170/  5/  7 1021.9
27 SE WRIGHTSVLE 2300      77  130/  6/  8   N/A
5 SE WRIGHTSVLE  2208   76 79  150/  6/ 10 1022.2
225 S CAPE HAT   2250   74 75   50/ 14/ 17 1021.4    6/ 9   5/ 9
41 SE CHARLESTON 2250   76 79  100/ 10/ 12 1021.1    3/ 8   3/ 8

$$


USA.gov is the U.S. government's official web portal to all federal, state and local government web resources and services.